Wind_Speed
6 6 7 7 7 7 6 5 5 4 4 4 3 3 3 4 4 5 6 7 7 8 9 9 9 9 9 9 9 8 8 7 6 5 5 4 4 3 2 2 2 2 2
7 7 8 9 8 8 7 7 6 6 5 5 5 5 4 5 5 6 6 7 8 8 8 8 9 9 9 9 8 8 8 7 7 6 5 4 3 2 2 2 1 1 2
9 8 9 10 10 9 8 8 8 7 7 7 7 7 6 6 6 6 7 8 8 8 8 8 8 8 8 8 8 8 8 7 6 6 5 4 3 3 2 2 1 0 1
10 10 10 11 11 10 9 9 9 9 9 9 9 8 8 8 8 8 8 9 9 9 9 9 9 8 8 8 8 8 8 7 7 6 5 5 4 4 3 2 1 0 0
13 12 11 12 12 11 11 11 10 10 10 10 10 10 10 10 10 9 10 10 10 10 10 9 9 9 9 9 8 8 8 8 8 7 7 6 6 5 4 4 2 1 1
15 13 13 13 13 13 13 12 12 12 12 11 11 11 11 11 11 11 11 11 11 11 11 11 11 10 10 10 9 9 9 9 9 9 8 7 7 6 5 5 4 3 2
15 15 15 15 14 14 14 14 14 14 13 13 13 13 13 12 12 13 13 13 13 13 13 13 13 12 12 11 11 11 11 10 10 10 9 8 8 8 7 6 5 4 4
16 16 16 16 16 16 15 15 15 15 15 14 14 14 14 14 14 14 14 14 14 15 15 15 15 14 14 13 13 12 12 12 11 11 10 10 10 9 8 7 7 6 5
18 18 17 17 18 17 16 16 16 16 16 15 15 15 15 16 15 15 15 16 16 17 17 17 16 16 16 16 15 14 13 13 13 12 12 12 11 11 10 9 8 8 7
19 18 18 18 18 17 16 16 17 17 17 16 16 16 16 17 17 17 17 17 18 18 19 19 18 18 18 18 18 16 15 15 15 14 14 13 13 13 12 11 10 10 9
20 19 19 18 18 17 17 17 18 18 18 18 18 18 18 18 18 18 18 18 19 20 20 21 21 20 20 20 20 19 18 17 16 16 16 15 15 15 13 13 13 12 11
20 19 19 18 18 17 18 19 19 19 19 19 19 19 19 19 19 19 20 19 20 21 21 21 21 22 22 22 22 21 21 19 19 18 18 17 16 16 15 15 14 14 13
19 18 17 19 18 18 19 19 20 20 20 19 19 19 19 20 20 21 21 20 21 21 22 22 22 22 23 23 23 23 22 21 20 20 19 19 18 17 17 17 17 16 15
18 18 19 18 19 19 19 19 19 20 19 19 19 20 21 21 22 22 21 21 22 22 23 24 24 23 23 23 23 23 23 22 22 21 21 21 20 19 19 18 18 19 17
16 16 16 17 18 17 18 19 19 20 20 20 20 21 22 22 22 22 22 22 22 23 24 24 24 24 23 23 23 23 23 24 23 22 22 22 22 22 22 21 20 20 20
16 16 15 16 15 14 16 18 19 20 20 21 21 21 22 23 23 23 23 23 24 24 25 26 25 25 24 23 23 23 23 24 24 24 23 23 23 23 23 23 22 21 20
16 16 15 14 15 15 17 18 19 20 20 21 22 22 22 23 23 24 24 24 24 25 25 25 25 25 25 24 24 24 24 24 25 24 24 24 24 24 23 23 23 23 21
17 17 16 15 15 16 17 19 19 19 19 20 20 21 21 22 23 24 24 25 25 25 26 26 26 26 26 26 25 25 25 25 26 26 25 25 24 23 24 23 23 23 23
18 19 17 16 16 16 17 19 19 19 18 20 21 21 21 22 24 24 24 25 25 26 26 27 27 27 27 27 26 26 26 25 25 25 25 25 25 24 24 24 25 24 24
18 19 18 17 17 17 17 18 17 18 18 19 20 21 22 22 24 25 25 26 26 26 27 28 28 28 28 28 28 28 27 27 26 26 26 26 25 26 27 26 26 25 25
17 17 17 17 17 18 18 18 19 19 20 20 20 21 22 23 24 25 25 27 28 28 28 28 28 28 28 29 29 28 28 27 27 27 27 27 27 27 28 27 27 27 26
18 17 16 16 17 18 18 19 21 21 20 21 22 22 23 24 25 25 26 28 29 29 29 28 28 28 28 28 29 29 28 27 27 27 27 26 26 27 27 27 27 28 27
17 17 17 17 18 18 19 21 22 22 21 22 22 23 24 25 26 27 27 28 28 29 29 28 28 28 28 28 28 28 28 27 27 27 27 26 26 26 26 26 27 28 29
17 18 18 19 19 20 21 22 22 23 23 24 24 24 25 27 27 28 28 28 28 29 29 28 27 27 27 27 27 27 27 27 27 27 27 27 27 26 26 26 26 27 27
19 20 21 21 21 21 22 23 24 25 25 26 26 26 27 28 28 28 29 28 28 28 28 28 28 27 27 27 26 27 27 27 27 27 28 27 27 27 26 27 27 28 28
21 21 21 22 22 23 23 24 25 26 27 27 27 28 28 28 28 28 29 28 28 28 28 28 27 27 27 26 26 26 27 27 27 27 27 26 26 27 27 27 27 27 29
Wind_Direction
303 288 281 271 263 258 247 233 221 219 224 230 241 259 279 297 309 317 323 328 332 335 341 345 347 347 349 351 351 352 353 353 352 357 360 6 11 8 6 12 30 55 82
295 291 277 269 263 257 247 238 235 235 240 243 249 260 271 284 292 302 308 313 319 323 328 334 338 341 342 345 345 344 345 343 342 345 349 352 352 344 337 339 7 57 98
295 287 274 264 258 254 252 247 241 241 246 250 254 261 268 275 280 287 294 299 305 311 316 320 326 331 333 334 336 337 337 334 331 331 335 331 324 316 308 307 323 46 115
297 288 275 260 254 252 251 248 245 245 249 253 257 262 266 269 273 278 283 287 292 299 305 310 313 318 322 323 323 325 325 321 318 318 322 320 311 302 291 287 272 260 170
296 287 275 261 254 250 248 246 246 248 251 254 257 261 266 269 271 275 280 284 287 292 296 299 304 308 310 312 313 313 313 312 309 307 305 306 302 296 289 285 275 262 251
296 282 272 259 253 250 245 243 245 247 250 254 258 261 265 270 272 275 279 283 286 290 292 293 295 300 300 300 302 304 304 304 302 300 297 295 292 289 287 285 280 272 263
295 282 272 258 251 249 245 243 246 248 251 254 257 261 265 269 273 277 280 281 285 288 290 292 292 294 296 295 295 297 300 299 296 294 290 287 287 283 283 279 276 272 266
290 279 271 258 249 247 247 247 247 250 254 256 258 260 263 266 269 275 279 280 282 285 286 286 288 288 290 290 290 291 294 294 293 291 287 285 283 281 278 278 274 268 258
292 280 268 262 247 245 245 246 248 250 253 253 256 260 262 264 266 271 274 277 279 282 283 283 284 285 287 287 285 285 286 287 287 286 286 283 281 279 273 270 270 266 255
292 282 272 264 251 242 240 243 245 247 249 250 253 257 260 263 265 268 271 274 276 279 281 281 281 282 283 283 282 280 279 280 283 283 283 280 277 276 271 266 266 262 258
289 282 274 265 256 247 241 241 244 246 247 249 252 256 258 262 264 266 271 273 274 277 280 281 281 279 280 279 278 277 275 274 276 279 279 278 275 274 272 269 266 263 261
288 278 269 260 255 248 241 240 244 247 247 248 252 256 259 262 263 265 269 271 271 273 276 278 279 278 278 278 276 275 273 270 271 273 274 274 274 273 273 270 266 263 262
288 277 266 256 253 248 241 242 244 247 247 250 253 256 259 261 262 264 267 269 270 272 273 276 277 276 276 276 273 272 272 269 268 270 270 271 270 271 271 269 266 263 261
284 282 274 260 255 250 247 244 243 245 247 251 254 256 258 260 262 263 266 268 269 271 272 274 277 277 276 276 272 268 268 268 268 268 267 267 267 268 269 268 267 264 259
283 279 270 262 254 248 244 246 247 247 249 252 254 254 257 260 263 265 266 268 270 271 272 274 276 276 277 275 273 269 265 266 269 267 265 266 266 266 266 267 267 266 262
283 277 272 264 253 254 251 250 255 253 251 253 254 254 257 260 263 266 267 268 270 273 273 272 272 274 276 275 272 271 270 268 268 266 265 266 265 263 264 265 265 262 265
279 278 271 265 260 259 256 253 255 252 251 252 254 255 257 258 262 266 267 269 271 273 275 274 272 270 271 271 271 272 272 271 269 267 265 264 263 262 262 263 261 261 262
281 278 272 267 261 262 258 253 253 253 254 254 258 259 258 260 263 267 269 271 272 273 273 273 273 271 269 269 269 271 272 271 269 266 264 262 260 261 261 262 261 260 261
281 279 269 264 261 260 257 254 253 255 259 261 262 263 262 263 266 268 270 271 272 273 272 272 271 271 270 269 268 269 271 271 268 266 263 260 259 259 260 261 262 259 260
282 277 271 268 266 263 260 258 260 262 264 266 267 267 267 267 269 270 271 271 272 273 273 272 273 272 271 269 268 268 271 271 269 267 264 261 259 257 258 260 261 259 260
282 278 272 272 271 267 265 261 263 266 266 268 269 269 269 270 269 271 272 272 272 273 273 273 273 272 270 269 268 268 269 269 268 267 264 263 261 259 259 260 259 258 259
280 276 271 271 272 269 268 266 267 270 271 270 268 268 269 271 271 272 273 272 272 272 273 273 273 272 271 270 268 267 267 267 268 265 263 263 263 261 261 260 258 258 259
281 276 273 272 273 270 271 272 272 273 274 273 271 272 274 273 273 273 273 272 272 271 272 272 273 272 271 270 269 267 267 267 267 264 261 261 263 262 262 260 257 257 257
281 277 276 276 275 274 274 275 277 276 276 275 275 274 275 275 274 273 273 272 271 271 271 271 272 271 271 270 269 268 265 265 264 262 261 261 262 263 262 259 257 255 254
282 279 277 275 275 276 276 277 278 278 278 277 275 274 274 274 273 273 272 272 270 270 270 271 270 270 269 269 268 267 266 264 264 263 261 261 261 261 260 261 258 256 255
284 280 276 275 275 275 277 278 278 278 279 277 276 275 274 274 273 273 273 271 269 269 269 269 268 269 268 267 267 266 265 264 263 264 262 261 261 260 260 261 260 258 257
Height
5896 5896 5896 5897 5897 5898 5898 5899 5900 5901 5901 5902 5903 5904 5904 5905 5905 5905 5906 5906 5906 5906 5906 5906 5905 5905 5904 5904 5903 5903 5902 5902 5901 5901 5900 5900 5900 5900 5900 5899 5899 5899 5899
5895 5895 5895 5896 5896 5897 5897 5898 5899 5899 5900 5902 5902 5903 5904 5904 5905 5905 5905 5906 5906 5906 5906 5906 5905 5905 5904 5904 5903 5902 5902 5902 5901 5901 5901 5900 5900 5900 5900 5900 5900 5900 5899
5893 5893 5894 5894 5895 5895 5896 5897 5897 5898 5899 5900 5901 5902 5903 5903 5904 5904 5905 5905 5905 5905 5905 5905 5905 5904 5904 5903 5903 5902 5902 5902 5901 5901 5901 5901 5900 5900 5900 5900 5900 5900 5900
5891 5891 5892 5892 5893 5894 5894 5895 5896 5897 5898 5899 5900 5901 5901 5902 5903 5903 5903 5904 5904 5904 5904 5904 5904 5904 5903 5903 5903 5902 5902 5902 5901 5901 5901 5901 5901 5900 5900 5900 5900 5900 5900
5889 5889 5890 5891 5891 5892 5893 5893 5894 5895 5896 5897 5898 5899 5900 5900 5901 5901 5902 5902 5902 5903 5903 5903 5903 5903 5902 5902 5902 5902 5901 5901 5901 5900 5900 5900 5900 5900 5900 5899 5899 5899 5899
5887 5887 5888 5889 5889 5890 5891 5891 5892 5893 5894 5895 5896 5897 5898 5898 5899 5899 5900 5900 5901 5901 5901 5901 5901 5901 5901 5901 5901 5900 5900 5900 5900 5899 5899 5899 5899 5899 5899 5898 5898 5898 5899
5885 5885 5886 5886 5887 5888 5888 5889 5890 5891 5892 5893 5894 5895 5896 5896 5897 5897 5898 5898 5899 5899 5899 5899 5899 5899 5899 5899 5899 5899 5899 5899 5898 5898 5898 5898 5897 5897 5897 5897 5897 5898 5898
5883 5883 5883 5884 5884 5885 5886 5887 5888 5889 5890 5891 5892 5893 5893 5894 5894 5895 5895 5896 5896 5896 5896 5897 5897 5897 5897 5897 5897 5897 5897 5897 5896 5896 5896 5896 5896 5896 5896 5896 5896 5896 5897
5880 5880 5880 5880 5881 5882 5883 5884 5885 5886 5887 5888 5889 5890 5890 5891 5892 5892 5893 5893 5893 5893 5893 5894 5894 5894 5894 5894 5894 5894 5895 5894 5894 5894 5894 5894 5894 5894 5894 5894 5894 5895 5895
5876 5876 5876 5877 5878 5878 5879 5881 5882 5883 5884 5885 5886 5887 5888 5888 5889 5889 5890 5890 5890 5890 5890 5890 5890 5891 5891 5891 5891 5891 5891 5891 5891 5891 5891 5891 5891 5892 5892 5892 5892 5893 5894
5873 5873 5873 5873 5874 5875 5876 5877 5879 5880 5881 5882 5883 5883 5884 5885 5885 5886 5886 5886 5887 5887 5887 5887 5887 5887 5887 5887 5887 5887 5888 5888 5888 5888 5888 5888 5889 5889 5889 5890 5890 5891 5891
5869 5869 5870 5870 5870 5871 5872 5873 5875 5876 5877 5878 5879 5880 5880 5881 5882 5882 5882 5882 5883 5883 5883 5883 5883 5883 5883 5883 5883 5883 5884 5884 5885 5885 5885 5885 5885 5886 5886 5887 5887 5888 5888
5866 5865 5866 5866 5867 5867 5868 5869 5871 5872 5873 5874 5875 5876 5877 5877 5878 5878 5878 5878 5878 5879 5879 5879 5879 5879 5879 5879 5879 5879 5879 5880 5881 5881 5881 5882 5882 5882 5883 5883 5884 5885 5885
5861 5862 5862 5863 5863 5864 5865 5866 5866 5867 5868 5870 5871 5872 5872 5873 5873 5874 5874 5874 5874 5874 5874 5874 5874 5874 5874 5874 5874 5874 5875 5876 5876 5877 5877 5877 5878 5878 5879 5879 5880 5881 5882
5858 5858 5858 5859 5859 5859 5860 5861 5862 5863 5864 5865 5866 5867 5868 5868 5869 5869 5869 5870 5869 5869 5870 5869 5869 5870 5869 5870 5870 5870 5870 5871 5872 5872 5872 5873 5873 5874 5874 5875 5875 5876 5877
5855 5855 5854 5854 5854 5855 5856 5858 5859 5859 5860 5861 5862 5862 5863 5863 5864 5865 5865 5865 5865 5864 5864 5864 5865 5865 5865 5865 5865 5865 5866 5866 5866 5867 5868 5868 5868 5869 5870 5870 5871 5872 5873
5852 5851 5850 5850 5850 5851 5853 5854 5855 5855 5856 5856 5857 5857 5858 5858 5859 5860 5860 5859 5859 5859 5859 5859 5859 5859 5859 5859 5860 5860 5860 5861 5861 5861 5862 5863 5863 5864 5865 5866 5866 5867 5868
5848 5847 5847 5846 5847 5847 5848 5849 5850 5851 5851 5852 5852 5852 5852 5853 5854 5854 5854 5854 5854 5854 5853 5853 5854 5854 5854 5854 5854 5854 5855 5855 5855 5856 5857 5857 5858 5859 5860 5861 5861 5862 5863
5844 5843 5843 5842 5843 5843 5844 5845 5846 5846 5847 5847 5847 5846 5847 5847 5848 5848 5849 5848 5848 5848 5848 5848 5848 5848 5848 5848 5848 5849 5849 5849 5849 5850 5851 5851 5852 5853 5854 5855 5856 5857 5858
5840 5839 5838 5838 5838 5839 5840 5841 5841 5842 5842 5841 5841 5841 5841 5842 5842 5843 5843 5842 5842 5842 5842 5842 5842 5842 5841 5841 5842 5842 5843 5843 5843 5844 5845 5845 5846 5847 5848 5849 5850 5851 5852
5836 5835 5834 5835 5835 5835 5835 5836 5836 5837 5837 5836 5836 5836 5836 5836 5836 5836 5836 5836 5836 5835 5835 5835 5835 5835 5835 5835 5835 5836 5836 5836 5837 5838 5838 5839 5840 5841 5842 5843 5844 5845 5846
5831 5831 5831 5831 5831 5831 5831 5831 5832 5831 5831 5831 5830 5830 5830 5830 5830 5830 5829 5829 5829 5828 5828 5828 5828 5828 5828 5828 5829 5829 5830 5831 5831 5831 5832 5833 5833 5834 5835 5836 5837 5839 5840
5827 5827 5827 5826 5827 5827 5826 5826 5825 5825 5825 5824 5824 5824 5824 5823 5823 5823 5822 5822 5822 5821 5821 5821 5821 5821 5821 5821 5822 5822 5823 5824 5824 5825 5825 5826 5827 5828 5829 5829 5830 5831 5833
5824 5823 5823 5823 5822 5822 5822 5821 5820 5820 5819 5819 5818 5818 5817 5816 5815 5815 5815 5814 5814 5814 5814 5814 5814 5814 5815 5815 5815 5815 5816 5817 5818 5818 5819 5820 5821 5822 5822 5823 5824 5825 5826
5819 5818 5818 5818 5818 5817 5816 5815 5815 5814 5813 5812 5812 5811 5810 5809 5808 5808 5807 5807 5807 5807 5807 5807 5807 5807 5807 5808 5808 5808 5809 5809 5810 5812 5812 5813 5814 5815 5816 5816 5817 5818 5819
5814 5813 5813 5812 5812 5811 5810 5809 5808 5807 5806 5805 5804 5803 5803 5802 5801 5800 5800 5799 5799 5799 5800 5800 5800 5800 5800 5801 5801 5801 5802 5803 5804 5805 5805 5806 5807 5808 5809 5809 5811 5812 5812